New Bedford, MA

6:48 AM EDT on August 24, 2017 (GMT -0400)
New Bedford Regional

Weather History for KEWB - September, 2011

Change the Weather History Date:

Monday, September 12, 2011

  Actual Average Record
Temperature  
Mean Temperature 66 °F -  
Max Temperature 80 °F 75 °F 91 °F (1961)
Min Temperature 55 °F 58 °F 39 °F (2006)
Cooling Degree Days 2    
Growing Degree Days 16 (Base 50)    
Moisture  
Dew Point 62 °F    
Average Humidity 86    
Maximum Humidity 100    
Minimum Humidity 61    
Precipitation  
Precipitation 0.00 in - - ()
Sea Level Pressure  
Sea Level Pressure 29.99 in    
Wind  
Wind Speed 4 mph (SW)    
Max Wind Speed 13 mph    
Max Gust Speed -    
Visibility 8 miles    
Events Fog    
Averages and records for this station are not official NWS values.
T = Trace of Precipitation, MM = Missing Value Source: NWS Daily Summary

Daily Weather History Graph

Daily Weather History Graph

Search for Another Location

Airport or City:

Trip Planner

Search our weather history database for the weather conditions in past years. The results will help you decide how hot, cold, wet, or windy it might be!

Date:

Astronomy

Sep. 12, 2011 Rise Set
Actual Time 6:20 AM EDT 6:58 PM EDT
Civil Twilight 5:52 AM EDT 7:26 PM EDT
Nautical Twilight 5:19 AM EDT 7:59 PM EDT
Astronomical Twilight 4:45 AM EDT 8:34 PM EDT
Moon 6:44 PM EDT (9/12) 6:35 AM EDT (9/12)
Length of Visible Light 13h 34m
Length of Day
12h 38m
Full, 100% of the Moon is Illuminated
Sep 12
Full
Sep 20
Last Quarter
Sep 27
New
Oct 3
First Quarter
Oct 11
Full

Hourly Weather History & Observations

Time (EDT) Temp. Dew Point Humidity Pressure Visibility Wind Dir Wind Speed Gust Speed Precip Events Conditions
12:53 AM 55.4 °F 53.6 °F 94% 30.02 in 10.0 mi SW 3.5 mph - N/A   Scattered Clouds
1:20 AM 55.4 °F 55.4 °F 100% 30.02 in 10.0 mi WSW 3.5 mph - N/A   Mostly Cloudy
1:53 AM 55.9 °F 54.0 °F 93% 30.02 in 10.0 mi SW 5.8 mph - N/A   Scattered Clouds
2:05 AM 59.0 °F 57.2 °F 94% 30.01 in 10.0 mi SW 3.5 mph - N/A   Mostly Cloudy
2:53 AM 60.1 °F 57.0 °F 90% 30.01 in 10.0 mi Calm Calm - N/A   Mostly Cloudy
3:03 AM 59.0 °F 57.2 °F 94% 30.01 in 10.0 mi Calm Calm - N/A   Scattered Clouds
3:26 AM 57.2 °F 57.2 °F 100% 30.01 in 10.0 mi Calm Calm - N/A   Mostly Cloudy
3:36 AM 60.8 °F 57.2 °F 88% 30.01 in 10.0 mi Calm Calm - N/A   Overcast
3:43 AM 60.8 °F 59.0 °F 94% 30.01 in 10.0 mi Calm Calm - N/A   Overcast
3:53 AM 60.1 °F 59.0 °F 96% 30.01 in 10.0 mi NE 3.5 mph - N/A   Overcast
4:53 AM 62.1 °F 60.1 °F 93% 30.00 in 10.0 mi Calm Calm - N/A   Overcast
5:40 AM 64.4 °F 62.6 °F 94% 29.99 in 6.0 mi SSW 3.5 mph - N/A   Overcast
5:53 AM 64.9 °F 63.0 °F 93% 29.99 in 6.0 mi South 3.5 mph - N/A   Overcast
6:26 AM 64.4 °F 64.4 °F 100% 30.00 in 2.0 mi WSW 4.6 mph - N/A   Overcast
6:35 AM 64.4 °F 64.4 °F 100% 29.99 in 1.5 mi Calm Calm - N/A   Overcast
6:53 AM 64.9 °F 64.0 °F 97% 30.00 in 2.0 mi WSW 3.5 mph - N/A   Overcast
7:03 AM 64.4 °F 64.4 °F 100% 30.00 in 4.0 mi WSW 3.5 mph - N/A   Overcast
7:23 AM 66.2 °F 64.4 °F 94% 30.01 in 6.0 mi WSW 4.6 mph - N/A   Overcast
7:53 AM 66.9 °F 64.9 °F 93% 30.01 in 7.0 mi WSW 3.5 mph - N/A   Overcast
8:19 AM 66.2 °F 64.4 °F 94% 30.01 in 9.0 mi West 8.1 mph - N/A   Overcast
8:53 AM 69.1 °F 64.9 °F 87% 30.01 in 10.0 mi SW 5.8 mph - N/A   Mostly Cloudy
9:20 AM 71.6 °F 64.4 °F 78% 30.00 in 10.0 mi West 8.1 mph - N/A   Mostly Cloudy
9:53 AM 73.0 °F 64.0 °F 73% 30.00 in 10.0 mi West 5.8 mph - N/A   Mostly Cloudy
10:37 AM 73.4 °F 64.4 °F 73% 30.01 in - North - - N/A   Unknown
10:53 AM 73.4 °F 64.4 °F 73% 30.01 in 10.0 mi WSW 9.2 mph - N/A   Partly Cloudy
11:53 AM 77.0 °F 64.4 °F 65% 29.99 in 10.0 mi West 8.1 mph - N/A   Scattered Clouds
12:53 PM 77.0 °F 64.4 °F 65% 29.98 in 10.0 mi West 4.6 mph - N/A   Scattered Clouds
1:53 PM 77.0 °F 64.4 °F 65% 29.96 in 10.0 mi West 9.2 mph - N/A   Scattered Clouds
2:44 PM 78.8 °F 64.4 °F 61% 29.94 in 10.0 mi SW 6.9 mph - N/A   Mostly Cloudy
2:51 PM 78.8 °F 64.4 °F 61% 29.94 in 10.0 mi SSW 4.6 mph - N/A   Scattered Clouds
2:53 PM 78.8 °F 64.4 °F 61% 29.94 in 10.0 mi SSW 8.1 mph - N/A   Scattered Clouds
3:53 PM 75.0 °F 64.9 °F 71% 29.94 in 10.0 mi SSW 12.7 mph - N/A   Clear
4:53 PM 75.0 °F 66.0 °F 73% 29.94 in 10.0 mi SSW 10.4 mph - N/A   Clear
5:53 PM 72.0 °F 66.0 °F 81% 29.94 in 10.0 mi SSW 8.1 mph - N/A   Clear
6:53 PM 69.1 °F 64.9 °F 87% 29.94 in 8.0 mi SSW 5.8 mph - N/A   Clear
7:53 PM 66.0 °F 63.0 °F 90% 29.96 in 8.0 mi SSW 4.6 mph - N/A   Clear
8:53 PM 66.9 °F 64.0 °F 90% 29.97 in 7.0 mi SW 5.8 mph - N/A   Clear
9:53 PM 64.9 °F 63.0 °F 93% 29.97 in 4.0 mi Calm Calm - N/A   Clear
10:53 PM 64.4 °F 62.6 °F 94% 29.97 in 4.0 mi Calm Calm - N/A   Clear
11:32 PM 64.4 °F 62.6 °F 94% 29.97 in 1.8 mi Calm Calm - N/A   Clear
11:53 PM 63.0 °F 61.0 °F 93% 29.97 in 0.5 mi Calm Calm - N/A Fog Fog